STARLINK-11433, 62008

Orbit data source: Space-Track

STARLINK-11433, 62008 is a payload satellite owned by SpaceX/Seattle (US) in LEO that was launched on Mon, 18 Nov 2024 UTC via an FALCON 9 launch vehicle from the Air Force Western Test Range (AFWTR). Payload-class satellites include a variety of spacecraft equipped with specific instruments for various scientific and technological missions. These include communications satellites like Starlink; space stations such as the ISS; scientific satellites like the Hubble; Earth observation satellites from companies like Planet Labs, Umbra, and HawkEye 360; GPS; miniature CubeSats for education and research; and military/defense satellites.

Loading next visibility...
Identifier
62008, 2024-213A
Orbit
LEO
Last TLE update
1 day ago
Origin
Manufacturer
SpaceX/Seattle
Mission
Operational Commercial Communications
Bus & Motor
STARLINK V2M, Unknown motor
Mass
730 kg wet, ~700 kg dry
Launch date (UTC)
2024-11-18 (6 months ago)
Launch vehicle
FALCON 9
Launch site
Air Force Western Test Range (AFWTR)
Object type
Payload
Rocket body
Debris
Shape & HBR
Box + 2 Pan, 29 m
Radar Cross Section
36.964 m², Large (>1 m²)

Expand to show TLE details & history

TLE from 1 day ago
0 STARLINK-11433
1 62008U 24213A   25128.24333646  .00001457  00000-0  16885-4 0  9996
2 62008  53.1580 106.8340 0001597 117.1222 242.9959 15.69711284 26945
Epoch: 2025-05-08T05:50Z
Definitive object data (Epoch: 2025-05-08T05:50:24.27Z)
Latitude
Longitude
152.91625°
Altitude
361.127 km
Speed
7.694 km/s
True Right ascension
07h 07m 20s
True Declination
0° 00' 00"
Sunlit
Object was in daylight at TLE epoch
Visualization TLE readout
Latitude
-48.41857°
Longitude
90.52902°
Altitude
377.374 km
Speed
7.682 km/s
Apparent Right ascension
03h 20m 04s
Apparent Declination
-44° 13' 42"
Sunlit
Object is in daylight
Visualization observer readout
Local Sidereal Time
15:40:29
Azimuth
140.373° SSE
Elevation
-84.261°
Doppler factor
1
Orbital elements
Apogee altitude
361.06 km
Perigee altitude
358.908 km
Semi-major axis
6,738.121 km
Eccentricity
0.0001597
Inclination
53.158°
RAAN
106.834°
Arg. of periapsis
117.1222°
True anomaly
242.9796°
Mean anomaly
242.9959°
Eccentric anomaly
242.98775°
Mean motion
3.92405 °/min
BSTAR
0.000016885
Orbital period
91.74 mins
Loading maneuver chart data...
Loading SW <> Apogee altitude chart data...
Loading historical data...
Loading historical data...
Loading historical data...
Loading historical data...
Loading historical data...
Loading historical data...
Loading historical data...

STARLINK-11433 Visibility forecast

Observer location: undefined°, undefined°

Span
Click to sort rows by Start time (UTC) header in descending order
Start Az.
Max El. time (UTC)
Max El. Az.
Max El.
End time (UTC)
End Az.
5 mins2025-05-09 08:19:28.856Z298.74° NW2025-05-09 08:22:28.856Z189.082° SSW34.69°2025-05-09 08:24:28.856Z149.25° SSE
4 mins2025-05-10 00:49:28.856Z223.544° SW2025-05-10 00:50:28.856Z212.52° SW40.946°2025-05-10 00:53:28.856Z52.128° ENE
5 mins2025-05-10 07:13:28.856Z324.313° NNW2025-05-10 07:15:28.856Z24.65° NE36.356°2025-05-10 07:18:28.856Z113.131° SE
|